Location: Unspecified
(35.6961°N, 0.0000°E)
Time: 08:40:37
(UTC+00:00)

Vanguard 2 Rocket - Pass Details

Date: 30 May 2019
Orbit: 554 x 3326 km, 32.9° (Epoch: 19 June)

Event Time Altitude Azimuth Distance (km) Brightness Sun altitude
Rises 09:25:51 0° 283° (WNW) 6,643 10.9 54.2°
Reaches altitude 10° 09:31:05 10° 278° (W) 5,235 10.5 55.3°
Maximum altitude 09:43:53 44° 214° (SW) 2,237 9.4 57.8°
Drops below altitude 10° 09:51:24 10° 144° (SE) 3,113 10.2 59.2°
Sets 09:53:44 0° 137° (SE) 3,800 10.5 59.7°
